Tracking 27112 objects as of 28-Mar-2023
HD Live streaming from Space Station
objects crossing your sky now

COSMOS 1818 COOLANT

Track COSMOS 1818 COOLANT now!
10-day predictions


NORAD ID: 34174
Int'l Code: 1987-011E
Perigee: 770.6 km
Apogee: 788.6 km
Inclination: 65.0 °
Period: 100.3 minutes
Semi major axis: 7150 km
RCS: 0.0023 m2 (small)
Launch date: February 1, 1987
Source: Commonwealth of Independent States (former USSR) (CIS)
Launch site: TYURATAM MISSILE AND SPACE COMPLEX (TTMTR)

Note: This is SATELLITE DEBRIS
Your satellite tracking list
Your tracking list is empty




NASA's NSSDC Master Catalog

Two Line Element Set (TLE):
1 34174U 87011E   23085.77621166  .00002582  00000-0  92422-3 0  9999
2 34174  65.0049 265.5466 0012592 286.1643  92.7260 14.35791325174275
Source of the keplerian elements: AFSPC